Murray, KY

9:06 PM CST on February 20, 2017 (GMT -0600)
Kyle-Oakley

Weather History for KCEY - February, 2013

Change the Weather History Date:

Monday, February 25, 2013

  Actual Average (KPAH) Record (KPAH)
Temperature  
Mean Temperature 46 °F -  
Max Temperature 57 °F 50 °F 75 °F (1981)
Min Temperature 35 °F 30 °F 4 °F (1967)
Degree Days  
Heating Degree Days 19    
Moisture  
Dew Point 29 °F    
Average Humidity 50    
Maximum Humidity 87    
Minimum Humidity 31    
Precipitation  
Precipitation 0.07 in - - ()
Sea Level Pressure  
Sea Level Pressure 29.82 in    
Wind  
Wind Speed 12 mph (East)    
Max Wind Speed 21 mph    
Max Gust Speed 29 mph    
Visibility 10 miles    
Events      
Averages and records for this station are not official NWS values.
T = Trace of Precipitation, MM = Missing Value Source: NWS Daily Summary

Daily Weather History Graph

Daily Weather History Graph

Search for Another Location

Airport or City:

Trip Planner

Search our weather history database for the weather conditions in past years. The results will help you decide how hot, cold, wet, or windy it might be!

Date:

Astronomy

Feb. 25, 2013 Rise Set
Actual Time 6:29 AM CST 5:44 PM CST
Civil Twilight 6:03 AM CST 6:10 PM CST
Nautical Twilight 5:33 AM CST 6:40 PM CST
Astronomical Twilight 5:03 AM CST 7:10 PM CST
Moon 5:55 PM CST (2/25) 6:00 AM CST (2/25)
Length of Visible Light 12h 07m
Length of Day
11h 15m
Full, 100% of the Moon is Illuminated
Feb 25
Full
Feb 25
Full
Mar 4
Last Quarter
Mar 11
New
Mar 19
First Quarter

Hourly Weather History & Observations

Time (CST) Temp. Windchill Dew Point Humidity Pressure Visibility Wind Dir Wind Speed Gust Speed Precip Events Conditions
12:15 AM 35.6 °F 30.7 °F 26.6 °F 70% 30.02 in 10.0 mi East 5.8 mph - N/A   Clear
12:55 AM 35.6 °F 28.6 °F 26.6 °F 70% 30.01 in 10.0 mi East 9.2 mph - N/A   Clear
1:15 AM 35.6 °F 29.2 °F 26.6 °F 70% 30.01 in 10.0 mi ENE 8.1 mph - N/A   Clear
1:55 AM 37.4 °F 32.1 °F 24.8 °F 60% 30.02 in 10.0 mi East 6.9 mph - N/A   Clear
2:15 AM 37.4 °F 30.3 °F 24.8 °F 60% 30.00 in 10.0 mi East 10.4 mph - N/A   Clear
2:35 AM 37.4 °F 32.1 °F 24.8 °F 60% 30.01 in 10.0 mi East 6.9 mph - N/A   Clear
2:55 AM 37.4 °F 30.8 °F 24.8 °F 60% 30.01 in 10.0 mi ENE 9.2 mph - N/A   Clear
3:15 AM 37.4 °F 30.8 °F 24.8 °F 60% 30.01 in 10.0 mi ENE 9.2 mph - N/A   Clear
3:35 AM 37.4 °F 30.3 °F 24.8 °F 60% 30.00 in 10.0 mi ENE 10.4 mph - N/A   Clear
3:55 AM 37.4 °F 29.8 °F 24.8 °F 60% 30.00 in 10.0 mi ENE 11.5 mph - N/A   Clear
4:15 AM 35.6 °F 27.5 °F 24.8 °F 65% 30.00 in 10.0 mi East 11.5 mph - N/A   Clear
4:35 AM 37.4 °F 29.3 °F 24.8 °F 60% 29.99 in 10.0 mi East 12.7 mph 17.3 mph N/A   Clear
4:55 AM 37.4 °F 29.8 °F 24.8 °F 60% 29.98 in 10.0 mi East 11.5 mph 18.4 mph N/A   Clear
5:15 AM 37.4 °F 29.8 °F 24.8 °F 60% 29.98 in 10.0 mi East 11.5 mph - N/A   Clear
5:35 AM 37.4 °F 29.3 °F 24.8 °F 60% 29.99 in 10.0 mi East 12.7 mph - N/A   Clear
5:55 AM 37.4 °F 29.3 °F 24.8 °F 60% 29.97 in 10.0 mi East 12.7 mph 18.4 mph N/A   Clear
6:15 AM 37.4 °F 29.8 °F 24.8 °F 60% 29.98 in 10.0 mi East 11.5 mph - N/A   Clear
6:35 AM 37.4 °F 30.3 °F 24.8 °F 60% 29.97 in 10.0 mi East 10.4 mph - N/A   Clear
6:55 AM 37.4 °F 29.3 °F 24.8 °F 60% 29.98 in 10.0 mi East 12.7 mph 17.3 mph N/A   Clear
7:15 AM 37.4 °F 28.9 °F 24.8 °F 60% 29.98 in 10.0 mi East 13.8 mph 20.7 mph N/A   Clear
7:35 AM 37.4 °F 29.3 °F 24.8 °F 60% 29.98 in 10.0 mi East 12.7 mph - N/A   Clear
7:55 AM 39.2 °F 31.6 °F 26.6 °F 61% 29.97 in 10.0 mi East 12.7 mph - N/A   Clear
8:15 AM 41.0 °F 32.8 °F 26.6 °F 57% 29.96 in 10.0 mi East 16.1 mph 21.9 mph N/A   Clear
8:35 AM 41.0 °F 33.9 °F 26.6 °F 57% 29.97 in 10.0 mi East 12.7 mph 24.2 mph N/A   Clear
8:55 AM 44.6 °F 37.4 °F 26.6 °F 49% 29.98 in 10.0 mi East 16.1 mph 25.3 mph N/A   Clear
9:15 AM 44.6 °F 36.4 °F 26.6 °F 49% 29.95 in 10.0 mi East 20.7 mph 26.5 mph N/A   Clear
9:35 AM 46.4 °F 39.0 °F 26.6 °F 46% 29.95 in 10.0 mi East 19.6 mph 28.8 mph N/A   Clear
9:55 AM 46.4 °F 39.8 °F 24.8 °F 43% 29.95 in 10.0 mi East 16.1 mph 25.3 mph N/A   Clear
10:15 AM 48.2 °F - 24.8 °F 40% 29.95 in 10.0 mi East 20.7 mph 25.3 mph N/A   Clear
10:35 AM 48.2 °F - 24.8 °F 40% 29.94 in 10.0 mi East 18.4 mph 24.2 mph N/A   Clear
10:55 AM 50.0 °F - 26.6 °F 40% 29.93 in 10.0 mi East 15.0 mph 21.9 mph N/A   Clear
11:15 AM 50.0 °F - 26.6 °F 40% 29.92 in 10.0 mi East 13.8 mph 19.6 mph N/A   Clear
11:35 AM 53.6 °F - 24.8 °F 33% 29.91 in 10.0 mi East 17.3 mph 23.0 mph N/A   Clear
11:55 AM 53.6 °F - 24.8 °F 33% 29.89 in 10.0 mi East 15.0 mph - N/A   Clear
12:15 PM 55.4 °F - 26.6 °F 33% 29.87 in 10.0 mi East 15.0 mph 20.7 mph N/A   Clear
12:35 PM 55.4 °F - 24.8 °F 31% 29.85 in 10.0 mi East 17.3 mph 21.9 mph N/A   Clear
12:55 PM 55.4 °F - 24.8 °F 31% 29.83 in 10.0 mi East 15.0 mph 20.7 mph N/A   Clear
1:15 PM 55.4 °F - 26.6 °F 33% 29.82 in 10.0 mi East 16.1 mph 20.7 mph N/A   Clear
1:35 PM 55.4 °F - 26.6 °F 33% 29.82 in 10.0 mi East 10.4 mph 16.1 mph N/A   Scattered Clouds
1:55 PM 55.4 °F - 26.6 °F 33% 29.80 in 10.0 mi East 15.0 mph 20.7 mph N/A   Mostly Cloudy
2:15 PM 57.2 °F - 26.6 °F 31% 29.79 in 10.0 mi East 15.0 mph - N/A   Scattered Clouds
2:35 PM 57.2 °F - 28.4 °F 33% 29.78 in 10.0 mi East 16.1 mph 20.7 mph N/A   Mostly Cloudy
2:55 PM 55.4 °F - 28.4 °F 36% 29.76 in 10.0 mi East 16.1 mph 21.9 mph N/A   Mostly Cloudy
3:15 PM 55.4 °F - 28.4 °F 36% 29.76 in 10.0 mi East 13.8 mph - N/A   Overcast
3:35 PM 55.4 °F - 28.4 °F 36% 29.75 in 10.0 mi East 12.7 mph 19.6 mph N/A   Overcast
3:55 PM 55.4 °F - 28.4 °F 36% 29.73 in 10.0 mi East 13.8 mph - N/A   Overcast
4:15 PM 53.6 °F - 28.4 °F 38% 29.71 in 10.0 mi ENE 17.3 mph 24.2 mph N/A   Overcast
4:35 PM 53.6 °F - 28.4 °F 38% 29.68 in 10.0 mi East 15.0 mph 24.2 mph N/A   Overcast
4:55 PM 53.6 °F - 30.2 °F 41% 29.68 in 10.0 mi East 17.3 mph 23.0 mph N/A   Overcast
5:15 PM 53.6 °F - 30.2 °F 41% 29.69 in 10.0 mi East 16.1 mph 21.9 mph N/A   Overcast
5:35 PM 53.6 °F - 30.2 °F 41% 29.67 in 10.0 mi East 11.5 mph 21.9 mph N/A   Overcast
5:55 PM 53.6 °F - 30.2 °F 41% 29.67 in 10.0 mi East 13.8 mph 21.9 mph N/A   Overcast
6:15 PM 53.6 °F - 30.2 °F 41% 29.68 in 10.0 mi East 16.1 mph 20.7 mph N/A   Overcast
6:35 PM 53.6 °F - 30.2 °F 41% 29.69 in 10.0 mi East 13.8 mph 19.6 mph N/A   Overcast
6:55 PM 53.6 °F - 30.2 °F 41% 29.68 in 10.0 mi East 16.1 mph 21.9 mph N/A   Overcast
7:15 PM 53.6 °F - 30.2 °F 41% 29.67 in 10.0 mi East 16.1 mph 20.7 mph N/A   Overcast
7:35 PM 53.6 °F - 30.2 °F 41% 29.63 in 10.0 mi East 16.1 mph 21.9 mph N/A   Overcast
7:55 PM 53.6 °F - 32.0 °F 44% 29.61 in 10.0 mi East 17.3 mph 21.9 mph N/A   Mostly Cloudy
8:15 PM 53.6 °F - 32.0 °F 44% 29.60 in 10.0 mi East 18.4 mph 24.2 mph N/A   Mostly Cloudy
8:35 PM 53.6 °F - 32.0 °F 44% 29.59 in 10.0 mi ESE 15.0 mph 19.6 mph N/A   Scattered Clouds
8:55 PM 53.6 °F - 35.6 °F 51% 29.58 in 10.0 mi East 11.5 mph 17.3 mph N/A   Mostly Cloudy
9:15 PM 53.6 °F - 35.6 °F 51% 29.57 in 10.0 mi East 12.7 mph 18.4 mph N/A   Overcast
9:35 PM 53.6 °F - 35.6 °F 51% 29.55 in 10.0 mi East 13.8 mph - N/A   Overcast
9:55 PM 53.6 °F - 37.4 °F 54% 29.53 in 10.0 mi East 12.7 mph 21.9 mph N/A   Overcast
10:15 PM 55.4 °F - 41.0 °F 58% 29.52 in 10.0 mi ESE 20.7 mph 27.6 mph N/A   Overcast
10:55 PM 51.8 °F - 44.6 °F 76% 29.51 in 5.0 mi ESE 13.8 mph 26.5 mph N/A   Overcast
11:15 PM 50.0 °F - 44.6 °F 82% 29.50 in 4.0 mi ESE 12.7 mph 19.6 mph 0.04 in   Overcast
11:35 PM 48.2 °F - 44.6 °F 87% 29.46 in 9.0 mi East 13.8 mph - 0.06 in   Overcast
11:55 PM 48.2 °F - 44.6 °F 87% 29.46 in 8.0 mi East 13.8 mph - 0.07 in   Overcast